Weather History for Altus, OK

Change the Weather History Date:

Sunday, November 3, 2013

  Actual Average (KLTS) Record (KLTS)
Temperature  
Mean Temperature 54 °F -  
Max Temperature 68 °F 63 °F 91 °F (2005)
Min Temperature 40 °F 42 °F 33 °F (1999)
Degree Days  
Heating Degree Days 11    
Growing Degree Days 4 (Base 50)    
Moisture  
Dew Point 34 °F    
Average Humidity 50    
Maximum Humidity 77    
Minimum Humidity 26    
Precipitation  
Precipitation 0.00 in - - ()
Sea Level Pressure  
Sea Level Pressure 30.03 in    
Wind  
Wind Speed 13 mph (SSE)    
Max Wind Speed 26 mph    
Max Gust Speed 36 mph    
Visibility 10 miles    
Events Rain    
Averages and records for this station are not official NWS values.
T = Trace of Precipitation, MM = Missing Value Source: NWS Daily Summary

Daily Weather History Graph

Daily Weather History Graph

Search for Another Location

Airport:

Trip Planner

Search our weather history database for the weather conditions in past years. The results will help you decide how hot, cold, wet, or windy it might be!

Date:

Astronomy

Nov. 03, 2013 Rise Set
Actual Time 7:00 AM CST 5:41 PM CST
Civil Twilight 6:33 AM CST 6:07 PM CST
Nautical Twilight 6:03 AM CST 6:37 PM CST
Astronomical Twilight 5:34 AM CST 7:06 PM CST
Moon 7:05 AM CST (11/3) 5:58 PM CST (11/3)
Length of Visible Light 11h 33m
Length of Day
10h 41m
New Moon, 0% of the Moon is Illuminated
Nov 3
New Moon
Nov 9
First Quarter
Nov 17
Full
Nov 25
Last Quarter
Dec 2
New

Hourly Weather History & Observations

Time (CST) Temp. Windchill Dew Point Humidity Pressure Visibility Wind Dir Wind Speed Gust Speed Precip Events Conditions
12:15 AM 50.2 °F - 32.5 °F 51% 30.18 in 10.0 mi SSE 11.5 mph - N/A   Clear
12:35 AM 49.6 °F - 32.5 °F 52% 30.17 in 10.0 mi SE 11.5 mph - N/A   Clear
12:55 AM 48.6 °F - 32.9 °F 55% 30.16 in 10.0 mi SE 10.4 mph - N/A   Clear
1:15 AM 46.8 °F - 33.8 °F 61% 30.16 in 10.0 mi SE 9.2 mph - N/A   Clear
1:35 AM 46.4 °F 42.4 °F 33.4 °F 61% 30.16 in 10.0 mi SE 8.1 mph - N/A   Clear
1:55 AM 47.3 °F - 33.1 °F 58% 30.16 in 10.0 mi SSE 9.2 mph - N/A   Clear
1:15 AM 47.7 °F - 32.9 °F 57% 30.16 in 10.0 mi SSE 10.4 mph - N/A   Clear
1:35 AM 46.6 °F - 32.9 °F 59% 30.16 in 10.0 mi SSE 10.4 mph - N/A   Clear
1:55 AM 46.4 °F 41.5 °F 32.9 °F 59% 30.16 in 10.0 mi SSE 10.4 mph - N/A   Clear
2:15 AM 45.7 °F 41.0 °F 32.9 °F 61% 30.16 in 10.0 mi SE 9.2 mph - N/A   Clear
2:35 AM 44.6 °F 40.7 °F 32.9 °F 64% 30.15 in 10.0 mi SE 6.9 mph - N/A   Clear
2:55 AM 43.7 °F 39.7 °F 32.9 °F 66% 30.14 in 10.0 mi SE 6.9 mph - N/A   Clear
3:15 AM 42.8 °F 39.3 °F 33.1 °F 69% 30.14 in 10.0 mi SE 5.8 mph - N/A   Clear
3:35 AM 43.5 °F 40.9 °F 32.9 °F 66% 30.13 in 10.0 mi ESE 4.6 mph - N/A   Clear
3:55 AM 42.3 °F 40.5 °F 32.9 °F 69% 30.12 in 10.0 mi SE 3.5 mph - N/A   Clear
4:15 AM 42.3 °F 38.6 °F 32.9 °F 69% 30.11 in 10.0 mi SE 5.8 mph - N/A   Clear
4:35 AM 42.1 °F 39.2 °F 32.9 °F 70% 30.11 in 10.0 mi SE 4.6 mph - N/A   Clear
4:55 AM 41.7 °F 38.0 °F 32.5 °F 70% 30.12 in 10.0 mi SE 5.8 mph - N/A   Clear
5:15 AM 42.1 °F 37.7 °F 32.9 °F 70% 30.11 in 10.0 mi ESE 6.9 mph - N/A   Clear
5:35 AM 41.5 °F 37.1 °F 33.1 °F 72% 30.11 in 10.0 mi SE 6.9 mph - N/A   Clear
5:55 AM 41.5 °F 37.1 °F 33.1 °F 72% 30.11 in 10.0 mi ESE 6.9 mph - N/A   Clear
6:15 AM 41.2 °F 37.3 °F 33.1 °F 73% 30.11 in 10.0 mi ESE 5.8 mph - N/A   Clear
6:35 AM 41.4 °F 36.2 °F 33.3 °F 73% 30.10 in 10.0 mi ESE 8.1 mph - N/A   Clear
6:55 AM 40.5 °F 35.8 °F 33.3 °F 75% 30.10 in 10.0 mi ESE 6.9 mph - N/A   Clear
7:15 AM 40.1 °F 35.3 °F 33.4 °F 77% 30.09 in 10.0 mi ESE 6.9 mph - N/A   Clear
7:35 AM 40.8 °F 35.6 °F 34.0 °F 77% 30.09 in 10.0 mi SE 8.1 mph - N/A   Clear
7:55 AM 44.2 °F 38.4 °F 34.3 °F 68% 30.09 in 10.0 mi SSE 11.5 mph - N/A   Clear
8:15 AM 46.0 °F 41.0 °F 34.2 °F 63% 30.10 in 10.0 mi SSE 10.4 mph - N/A   Clear
8:35 AM 47.3 °F - 34.7 °F 62% 30.10 in 10.0 mi SSE 12.7 mph - N/A   Clear
8:55 AM 49.3 °F - 35.1 °F 58% 30.10 in 10.0 mi SSE 13.8 mph - N/A   Clear
9:15 AM 50.7 °F - 34.7 °F 54% 30.11 in 10.0 mi South 12.7 mph - N/A   Clear
9:35 AM 53.8 °F - 34.7 °F 48% 30.11 in 10.0 mi South 15.0 mph - N/A   Clear
9:55 AM 56.3 °F - 34.5 °F 44% 30.10 in 10.0 mi South 16.1 mph - N/A   Clear
10:15 AM 57.9 °F - 35.1 °F 42% 30.08 in 10.0 mi SSE 19.6 mph - N/A   Clear
10:35 AM 61.5 °F - 33.8 °F 35% 30.07 in 10.0 mi South 18.4 mph - N/A   Clear
10:55 AM 60.4 °F - 32.7 °F 35% 30.07 in 10.0 mi South 21.9 mph 26.5 mph N/A   Clear
11:15 AM 61.0 °F - 32.9 °F 35% 30.06 in 10.0 mi South 19.6 mph 24.2 mph N/A   Clear
11:35 AM 62.6 °F - 33.1 °F 33% 30.05 in 10.0 mi South 21.9 mph 26.5 mph N/A   Clear
11:55 AM 63.1 °F - 32.9 °F 32% 30.04 in 10.0 mi South 19.6 mph 23.0 mph N/A   Clear
12:15 PM 64.0 °F - 33.1 °F 31% 30.02 in 10.0 mi South 20.7 mph 24.2 mph N/A   Clear
12:35 PM 65.5 °F - 32.0 °F 29% 30.01 in 5.0 mi South 20.7 mph - N/A   Haze
12:55 PM 66.0 °F - 32.0 °F 28% 29.99 in 10.0 mi South 25.3 mph - N/A   Clear
1:15 PM 66.2 °F - 31.5 °F 27% 29.97 in 10.0 mi South 26.5 mph 32.2 mph N/A   Clear
1:35 PM 67.5 °F - 31.8 °F 27% 29.95 in 10.0 mi South 21.9 mph - N/A   Clear
1:55 PM 68.2 °F - 32.0 °F 26% 29.96 in 10.0 mi South 24.2 mph 27.6 mph N/A   Clear
2:15 PM 68.0 °F - 31.8 °F 26% 29.95 in 10.0 mi South 25.3 mph 31.1 mph N/A   Clear
2:35 PM 68.2 °F - 32.0 °F 26% 29.95 in 10.0 mi South 26.5 mph 31.1 mph N/A   Clear
2:55 PM 68.0 °F - 32.2 °F 26% 29.93 in 10.0 mi South 25.3 mph 29.9 mph N/A   Clear
3:15 PM 67.3 °F - 32.0 °F 27% 29.92 in 7.0 mi South 25.3 mph 35.7 mph N/A   Clear
3:35 PM 65.8 °F - 32.0 °F 28% 29.90 in 10.0 mi South 21.9 mph 28.8 mph N/A   Clear
3:55 PM 65.5 °F - 32.7 °F 30% 29.90 in 10.0 mi SSE 21.9 mph - N/A   Clear
4:15 PM 65.8 °F - 32.9 °F 29% 29.89 in 10.0 mi SSE 20.7 mph 27.6 mph N/A   Clear
4:35 PM 65.5 °F - 33.1 °F 30% 29.91 in 10.0 mi South 20.7 mph 28.8 mph N/A   Clear
4:55 PM 64.9 °F - 33.3 °F 31% 29.90 in 10.0 mi SSE 17.3 mph 23.0 mph N/A   Clear
5:15 PM 64.6 °F - 33.3 °F 31% 29.90 in 10.0 mi SSE 17.3 mph 23.0 mph N/A   Clear
5:35 PM 64.0 °F - 33.4 °F 32% 29.90 in 10.0 mi SSE 17.3 mph 25.3 mph N/A   Clear
5:55 PM 62.8 °F - 33.8 °F 34% 29.91 in 10.0 mi SE 13.8 mph 20.7 mph N/A   Clear
6:15 PM 61.9 °F - 35.1 °F 37% 29.91 in 10.0 mi SSE 17.3 mph - N/A   Clear
6:35 PM 61.0 °F - 35.2 °F 38% 29.92 in 10.0 mi SE 13.8 mph - N/A   Clear
6:55 PM 60.6 °F - 35.6 °F 39% 29.93 in 10.0 mi SE 15.0 mph - N/A   Clear
7:15 PM 60.1 °F - 35.8 °F 40% 29.93 in 10.0 mi SE 18.4 mph - N/A   Clear
7:35 PM 59.9 °F - 36.5 °F 42% 29.92 in 10.0 mi SE 16.1 mph - N/A   Clear
7:55 PM 59.4 °F - 37.2 °F 44% 29.92 in 10.0 mi SE 17.3 mph 25.3 mph N/A   Clear
8:15 PM 59.0 °F - 37.9 °F 46% 29.91 in 10.0 mi SSE 18.4 mph 24.2 mph N/A Rain Light Rain
8:35 PM 59.0 °F - 38.3 °F 46% 29.92 in 10.0 mi SSE 18.4 mph - N/A   Clear
8:55 PM 58.8 °F - 39.2 °F 48% 29.92 in 10.0 mi SSE 17.3 mph 23.0 mph N/A   Clear
9:15 PM 56.1 °F - 43.9 °F 64% 29.92 in 10.0 mi SSE 13.8 mph - N/A Rain Light Rain
9:35 PM 56.3 °F - 43.7 °F 63% 29.92 in 10.0 mi SSE 15.0 mph - N/A   Scattered Clouds
9:55 PM 56.7 °F - 43.5 °F 61% 29.92 in 10.0 mi SSE 16.1 mph - N/A   Clear
10:15 PM 56.3 °F - 43.3 °F 62% 29.92 in 10.0 mi SSE 17.3 mph - N/A   Scattered Clouds
10:35 PM 56.5 °F - 43.5 °F 62% 29.92 in 10.0 mi SSE 16.1 mph - N/A   Scattered Clouds
10:55 PM 56.8 °F - 43.0 °F 60% 29.92 in 10.0 mi SSE 15.0 mph - N/A   Scattered Clouds